This demonstration page uses our WeatherBlox Daily Observations layout. Learn more.

Left ArrowRight Arrow

Hourly Observations for October 28, 2022

Temp ( °F °C ) Dew Point ( °F °C ) Humidity (%) Winds ( mph kmh ) Pressure ( in mb ) Visibility ( mi km ) Precip ( " mm )
12:53 am 00:53 Clear 47 8.3 28 -2.2 47 47 SW 22 35 29.92 1013 10 16 0.00 0.00
1:53 am 01:53 Clear 47 8.3 28 -2.2 47 47 SW 14 22 29.94 1014 10 16 0.00 0.00
2:53 am 02:53 Clear 47 8.3 28 -2.2 47 47 WSW 23 37 29.92 1013 10 16 0.00 0.00
3:53 am 03:53 Clear 48 8.9 28 -2.2 46 46 SW 21 33 29.92 1013 10 16 0.00 0.00
4:53 am 04:53 Clear 48 8.9 27 -2.8 44 44 SW 25 41 29.92 1013 10 16 0.00 0.00
5:53 am 05:53 Clear 47 8.3 27 -2.8 45 45 SW 23 37 29.92 1013 10 16 0.00 0.00
6:53 am 06:53 Clear 47 8.3 25 -3.9 42 42 SW 26 43 29.92 1013 10 16 0.00 0.00
7:53 am 07:53 Clear 46 7.8 25 -3.9 43 43 SW 30 48 29.92 1013 10 16 0.00 0.00
8:53 am 08:53 Sunny 46 7.8 25 -3.9 43 43 WSW 14 22 29.96 1015 10 16 0.00 0.00
9:53 am 09:53 Sunny 48 8.9 25 -3.9 40 40 SW 17 28 29.98 1015 10 16 0.00 0.00
10:53 am 10:53 Sunny 51 10.6 25 -3.9 36 36 SW 18 30 29.98 1015 10 16 0.00 0.00
11:53 am 11:53 Sunny 55 12.8 24 -4.4 30 30 SW 22 35 29.98 1015 10 16 0.00 0.00
12:53 pm 12:53 Sunny 57 13.9 24 -4.4 28 28 SSW 21 33 29.95 1014 10 16 0.00 0.00
1:53 pm 13:53 Sunny 57 13.9 22 -5.6 25 25 WSW 21 33 29.95 1014 10 16 0.00 0.00
2:53 pm 14:53 Sunny 56 13.3 24 -4.4 29 29 SW 18 30 29.95 1014 10 16 0.00 0.00
3:53 pm 15:53 Sunny 56 13.3 25 -3.9 30 30 SW 14 22 29.98 1015 10 16 0.00 0.00
4:53 pm 16:53 Sunny 54 12.2 26 -3.3 34 34 SW 12 19 29.99 1016 10 16 0.00 0.00
5:53 pm 17:53 Sunny 52 11.1 25 -3.9 35 35 SW 16 26 30.00 1016 10 16 0.00 0.00
6:53 pm 18:53 Clear 50 10 27 -2.8 40 40 SSW 15 24 30.01 1016 10 16 0.00 0.00
7:53 pm 19:53 Clear 47 8.3 27 -2.8 45 45 SSW 12 19 30.04 1017 10 16 0.00 0.00
8:53 pm 20:53 Clear 41 5 27 -2.8 57 57 SW 12 19 30.08 1019 10 16 0.00 0.00
9:53 pm 21:53 Clear 42 5.6 27 -2.8 55 55 SW 12 19 30.09 1019 10 16 0.00 0.00
10:53 pm 22:53 Clear 40 4.4 26 -3.3 57 57 SW 12 19 30.10 1019 10 16 0.00 0.00
11:53 pm 23:53 Clear 42 5.6 27 -2.8 55 55 SW 12 19 30.09 1019 10 16 0.00 0.00

Powered by AerisWeather